Location: Melbourne
(37.8170°S, 144.9670°E)
Time: 01:44:05
(UTC+10:00)

Vanguard 1 Rocket - Visible Passes

Search period start: 26 June 2017 00:00
Search period end: 06 July 2017 00:00
Orbit: 651 x 4226 km, 34.3° (Epoch: 24 June)

Date Brightness Start Highest point End Pass type
(mag) Time Alt. Az. Time Alt. Az. Time Alt. Az.
26 Jun 9.6 03:41:35 23° ENE 03:41:35 23° ENE 03:43:25 10° E visible
26 Jun 8.1 05:58:52 24° WNW 06:02:05 39° NNW 06:06:36 10° NE visible
26 Jun 11.3 21:12:26 10° N 21:22:14 20° NNE 21:22:14 20° NNE visible
26 Jun 11.6 23:38:00 10° NW 23:39:31 13° NW 23:39:31 13° NW visible
27 Jun 7.9 04:51:45 58° N 04:51:45 58° N 04:56:49 10° ENE visible
27 Jun 11.4 20:04:50 10° NNE 20:14:36 14° NE 20:15:03 14° NE visible
27 Jun 11.3 22:24:19 10° NNW 22:32:21 23° NNW 22:32:21 23° NNW visible
28 Jun 9.5 03:44:38 26° ENE 03:44:38 26° ENE 03:46:46 10° ENE visible
28 Jun 8.4 06:01:55 21° WNW 06:05:07 31° NNW 06:09:32 10° NNE visible
28 Jun 11.1 21:12:03 10° NNW 21:25:12 26° NNE 21:25:12 26° NNE visible
28 Jun 11.6 23:39:42 10° NW 23:42:30 15° NW 23:42:30 15° NW visible
29 Jun 8.1 04:54:49 51° NNW 04:54:49 51° NNW 05:00:02 10° NE visible
29 Jun 11.2 20:02:03 10° N 20:17:23 20° NE 20:18:06 20° NE visible
29 Jun 11.2 22:25:27 10° NW 22:35:23 28° NNW 22:35:23 28° NNW visible
30 Jun 9.4 03:47:43 27° ENE 03:47:43 27° ENE 03:50:07 10° ENE visible
30 Jun 8.8 06:05:00 18° WNW 06:08:00 24° NW 06:12:13 10° NNE visible
30 Jun 11.5 18:58:40 10° NE 19:03:46 11° NE 19:08:38 10° ENE visible
30 Jun 10.9 21:12:26 10° NNW 21:28:19 33° N 21:28:19 33° N visible
30 Jun 11.5 23:41:41 10° WNW 23:45:37 17° NW 23:45:37 17° NW visible
01 Jul 8.4 04:57:55 43° NNW 04:57:55 43° NNW 05:03:07 10° NE visible
01 Jul 11.0 20:01:13 10° N 20:20:02 26° NE 20:21:16 26° NE visible
01 Jul 11.0 22:26:57 10° NW 22:38:34 32° NNW 22:38:34 32° NNW visible
02 Jul 9.4 03:50:50 28° NE 03:50:50 28° NE 03:53:23 10° ENE visible
02 Jul 9.2 06:08:08 15° WNW 06:10:46 18° NW 06:14:33 10° N visible
02 Jul 11.3 18:53:03 10° NNE 19:06:22 17° NE 19:14:14 14° ENE visible
02 Jul 10.8 21:13:23 10° NNW 21:31:32 40° N 21:31:32 40° N visible
02 Jul 11.5 23:43:54 10° WNW 23:48:51 19° WNW 23:48:51 19° WNW visible
03 Jul 8.7 05:01:04 35° NNW 05:01:04 35° NNW 05:06:02 10° NNE visible
03 Jul 10.8 20:01:23 10° NNW 20:22:33 33° NE 20:24:32 33° NE visible
03 Jul 10.9 22:28:46 10° NW 22:41:50 37° NW 22:41:50 37° NW visible
04 Jul 9.4 03:54:01 27° NE 03:54:01 27° NE 03:56:34 10° NE visible
04 Jul 9.5 06:11:18 12° WNW 06:13:23 13° NW 06:16:11 10° NNW visible
04 Jul 11.1 18:51:32 10° N 19:08:46 23° NE 19:17:32 18° ENE visible
04 Jul 10.6 21:14:45 10° NW 21:34:50 48° N 21:34:50 48° N visible
04 Jul 11.4 23:46:18 10° WNW 23:52:09 21° WNW 23:52:09 21° WNW visible
05 Jul 9.1 05:04:16 28° NNW 05:04:16 28° NNW 05:08:46 10° NNE visible
05 Jul 11.5 17:46:37 10° NNE 17:55:21 13° NE 18:03:54 10° ENE visible
05 Jul 10.7 20:02:10 10° NNW 20:25:00 40° NE 20:27:50 39° NE visible
05 Jul 10.9 22:30:52 10° WNW 22:45:09 41° NW 22:45:09 41° NW visible
